Flag for Canada Weather past 2 weeks in North Bay, Ontario, Canada

Now
64 °F

Low clouds.


Feels Like: 64 °F
Forecast: 61 / 72 °F
Wind: 10 mph from West

Location: North Bay

Current Time: Sep 2, 2014 at 7:45:04 AM

Latest Report: Sep 2, 2014 at 7:00 AM


Visibility: 10 mi

Pressure: 29.75 "Hg

Humidity: 94%

Dew point: 63 °F

Location of North BayLocation

Historic Weather in North Bay — Graph

°F

North Bay temperature yesterday

Maximum temperature yesterday: 77 °F (at 4:00 PM)
Minimum temperature yesterday: 59 °F (at 1:59 AM)
Average temperature yesterday: 67 °F

Past Weeks' High & Low Weather Summary

 TemperatureHumidityPressure
High79 °F (Aug 24, 4:00 PM)100% (Aug 20, 11:00 AM)30.24 "Hg (Aug 20, 11:00 AM)
Low45 °F (Aug 18, 6:00 AM)35% (Aug 28, 5:00 PM)29.69 "Hg (Sep 1, 9:00 PM)
Average64 °F83%30.00 "Hg
* Reported Aug 18 6:00 AM — Sep 2 6:00 AM, North Bay, Weather by CustomWeather, © 2014

Note: Actual official high and low records may vary slightly from our data, if they occured in-between our weather recording intervals... More about our weather records

Advertising

North Bay weather history for previous 24 hours

 ConditionsComfort  
Time TempWeatherWind HumidityBarometerVisibility
6:00 AM
Sep 2
64 °FMostly cloudy.7 mph94%29.74 "Hg9 mi
5:00 AM64 °FLow clouds.7 mph94%29.72 "Hg9 mi
4:00 AM64 °FLow clouds.7 mph100%29.72 "Hg9 mi
3:04 AM66 °FFog.10 mph94%29.72 "Hg6 mi
3:00 AM66 °FFog.14 mph94%29.72 "Hg5 mi
2:54 AM66 °FFog.10 mph94%29.72 "Hg5 mi
2:00 AM66 °FLow clouds.14 mph94%29.72 "Hg9 mi
1:00 AM66 °FLow clouds.12 mph94%29.72 "Hg9 mi
12:03 AM68 °FMostly cloudy.13 mph94%29.72 "Hg9 mi
11:55 PM
Sep 1
68 °FMostly cloudy.15 mph94%29.72 "Hg9 mi
11:00 PM70 °FMostly cloudy.17 mph94%29.70 "Hg9 mi
10:00 PM70 °FSprinkles. Fog.14 mph100%29.70 "Hg5 mi
9:00 PM72 °FSprinkles. Mostly cloudy.13 mph88%29.69 "Hg10 mi
8:00 PM72 °FMostly cloudy.13 mph83%29.70 "Hg20 mi
7:00 PM73 °FMostly cloudy.10 mph78%29.73 "Hg20 mi
6:00 PM75 °FPartly sunny.13 mph74%29.75 "Hg20 mi
5:00 PM77 °FScattered clouds.13 mph65%29.75 "Hg15 mi
4:00 PM77 °FScattered clouds.13 mph65%29.77 "Hg15 mi
3:00 PM75 °FBroken clouds.8 mph78%29.80 "Hg15 mi
2:00 PM73 °FPartly sunny.7 mph78%29.84 "Hg15 mi
1:00 PM70 °FMore clouds than sun.9 mph78%29.85 "Hg15 mi
12:00 PM68 °FBroken clouds.8 mph83%29.88 "Hg15 mi
11:00 AM66 °FLow clouds.9 mph88%29.91 "Hg15 mi
10:00 AM63 °FPartly sunny.6 mph94%29.92 "Hg15 mi
9:00 AM63 °FMostly cloudy.9 mph94%29.93 "Hg10 mi
8:00 AM63 °FFog.5 mph94%29.94 "Hg1 mi
7:00 AM61 °FDrizzle. Fog.No wind100%29.95 "Hg2 mi
Weather by CustomWeather, © 2014

See weather overviewHow to use our weather pages